Location: Innsbruck
(47.2657°N, 11.3914°E)
Time: 07:30:49
(UTC+02:00)

Nauka - Pass Details

Date: 27 September 2021
Orbit: 418 x 423 km, 51.6° (Epoch: 15 October)

Event Time Altitude Azimuth Distance (km) Brightness Sun altitude
Rises 21:47:02 0° 294° (WNW) 2,369 ? -27.7°
Reaches altitude 10° 21:49:08 10° 295° (WNW) 1,503 ? -28.0°
Enters shadow 21:50:18 20° 295° (WNW) 1,037 ? -28.2°
